This is the latest recevied weather packets stored in our database for station/object KC1OEK-13. If no packets are shown the sender has not sent any weather packets the latest 10 day(s).
| Time | Temp. | Humidity | Pressure | Rain* | Wind** | Luminosity | Snow |
|---|---|---|---|---|---|---|---|
| 1787501227 | 23.33° C | 86% | 1012 hPa | 0 mm | - | 272 W/m² | - |
| 1787500923 | 23.33° C | 86% | 1012.3 hPa | 0 mm | - | 205 W/m² | - |
| 1787500619 | 23.33° C | 87% | 1012.3 hPa | 0 mm | - | 356 W/m² | - |
| 1787500314 | 22.78° C | 87% | 1012.4 hPa | 0 mm | - | 261 W/m² | - |
| 1787500014 | 22.78° C | 89% | 1012.4 hPa | 0 mm | - | 316 W/m² | - |
| 1787499714 | 22.22° C | 91% | 1012.2 hPa | 0 mm | - | 345 W/m² | - |
| 1787499408 | 21.67° C | 93% | 1012.4 hPa | 0 mm | - | 306 W/m² | - |
| 1787499104 | 20.56° C | 96% | 1012.4 hPa | 0 mm | - | 464 W/m² | - |
| 1787498802 | 20.56° C | 99% | 1012.2 hPa | 0 mm | - | 796 W/m² | - |
| 1787498498 | 20.56° C | 99% | 1012.4 hPa | 0 mm | - | 918 W/m² | - |
| 1787498194 | 20.56° C | 99% | 1012.5 hPa | 0 mm | - | 303 W/m² | - |
| 1787497890 | 20.56° C | 99% | 1012.4 hPa | 0 mm | - | 326 W/m² | - |
| 1787497585 | 20.56° C | 99% | 1012.5 hPa | 0 mm | - | 358 W/m² | - |
| 1787497280 | 20.56° C | 99% | 1012.6 hPa | 0 mm | - | 364 W/m² | - |
| 1787496979 | 20° C | 99% | 1012.4 hPa | 0 mm | - | 348 W/m² | - |
| 1787496679 | 20.56° C | 99% | 1012.8 hPa | 0 mm | - | 295 W/m² | - |
| 1787496374 | 20° C | 99% | 1012.8 hPa | 0 mm | - | 209 W/m² | - |
| 1787496068 | 20° C | 99% | 1012.6 hPa | 0 mm | - | 92 W/m² | - |
| 1787495763 | 20° C | 99% | 1012.7 hPa | 0 mm | - | 62 W/m² | - |
| 1787495459 | 19.44° C | 99% | 1012.7 hPa | 0 mm | - | 85 W/m² | - |
| 1787495154 | 19.44° C | 99% | 1012.8 hPa | 0 mm | - | 61 W/m² | - |
| 1787494850 | 19.44° C | 99% | 1012.6 hPa | 0 mm | - | 62 W/m² | - |
| 1787494545 | 19.44° C | 99% | 1012.8 hPa | 0 mm | - | 76 W/m² | - |
| 1787494240 | 19.44° C | 99% | 1012.8 hPa | 0 mm | - | 79 W/m² | - |
| 1787493936 | 19.44° C | 99% | 1012.7 hPa | 1.78 mm | - | 47 W/m² | - |
* Rain latest hour (hover to see other rain measurements)
** Current wind speed in m/s (hover to see current wind gust speed)